When you browse on this site, cookies collect data to enhance your experience and personalize the content and advertising you see.
Visit our Privacy Policy to learn more. By continuing to use the site, you agree to this use of cookies and data.
  • In Österreich
  • Länderverzeichnis
  • Für 7 Tage
  • Wassertemperatur
  • Satellitenkarten
  • Wetterkarte
  • News
  • Widgets
  • user-avatar
    Anmelden

    Stündliche Wetter Glowaczewo

    Heute, 11 Dezember, Dienstag

    Zeit Temperatur Niederschläge Wind Luftdruck Luftfeuchtigkeit
    00:00 +2°C° 0.7 mm 7 m/S 752 mmHg 81%
    01:00 +3°C° 0 mm 7 m/S 753 mmHg 83%
    02:00 +2°C° 0.5 mm 7 m/S 753 mmHg 83%
    03:00 +2°C° 0.5 mm 7 m/S 753 mmHg 82%
    04:00 +2°C° 0.5 mm 6 m/S 753 mmHg 81%
    05:00 +2°C° 0.2 mm 7 m/S 754 mmHg 81%
    06:00 +2°C° 0.2 mm 7 m/S 754 mmHg 81%
    07:00 +1°C° 0 mm 6 m/S 755 mmHg 81%
    08:00 +2°C° 0.2 mm 7 m/S 755 mmHg 80%
    09:00 +2°C° 0.2 mm 7 m/S 756 mmHg 79%
    10:00 +2°C° 0.2 mm 7 m/S 757 mmHg 78%
    11:00 +2°C° 0.2 mm 7 m/S 757 mmHg 78%
    12:00 +2°C° 0.2 mm 7 m/S 758 mmHg 77%
    13:00 +2°C° 0.2 mm 7 m/S 758 mmHg 77%
    14:00 +2°C° 0.2 mm 6 m/S 759 mmHg 79%
    15:00 +2°C° 0.2 mm 6 m/S 759 mmHg 80%
    16:00 +2°C° 0.2 mm 6 m/S 759 mmHg 82%
    17:00 +2°C° 0.2 mm 6 m/S 760 mmHg 83%
    18:00 +2°C° 0.2 mm 6 m/S 760 mmHg 84%
    19:00 +2°C° 0.2 mm 6 m/S 761 mmHg 85%
    20:00 +1°C° 0.1 mm 6 m/S 761 mmHg 87%
    21:00 +1°C° 0.1 mm 6 m/S 762 mmHg 88%
    22:00 +1°C° 0.1 mm 5 m/S 763 mmHg 89%
    23:00 +1°C° 0 mm 5 m/S 763 mmHg 89%

    Morgen, 12 Dezember, Mittwoch

    Zeit Temperatur Niederschläge Wind Luftdruck Luftfeuchtigkeit
    00:00 0°C° 0 mm 5 m/S 764 mmHg 88%
    01:00 0°C° 0 mm 4 m/S 764 mmHg 88%
    02:00 0°C° 0 mm 4 m/S 765 mmHg 87%
    03:00 0°C° 0 mm 4 m/S 765 mmHg 87%
    04:00 +1°C° 0 mm 3 m/S 766 mmHg 86%
    05:00 +1°C° 0.1 mm 3 m/S 766 mmHg 86%
    06:00 +1°C° 0.1 mm 3 m/S 766 mmHg 86%
    07:00 +1°C° 0.1 mm 3 m/S 767 mmHg 86%
    08:00 +1°C° 0.2 mm 3 m/S 767 mmHg 84%
    09:00 +2°C° 0.2 mm 3 m/S 767 mmHg 82%
    10:00 +1°C° 0.2 mm 4 m/S 768 mmHg 81%
    11:00 +3°C° 0.2 mm 4 m/S 768 mmHg 80%
    12:00 +3°C° 0.2 mm 4 m/S 768 mmHg 80%
    13:00 +3°C° 0.2 mm 4 m/S 768 mmHg 79%
    14:00 +3°C° 0.2 mm 4 m/S 768 mmHg 82%
    15:00 +1°C° 0.2 mm 5 m/S 768 mmHg 84%
    16:00 +1°C° 0.2 mm 5 m/S 769 mmHg 86%
    17:00 +1°C° 0.1 mm 5 m/S 769 mmHg 86%
    18:00 0°C° 0.1 mm 5 m/S 769 mmHg 87%
    19:00 0°C° 0.1 mm 5 m/S 769 mmHg 88%
    20:00 0°C° 0.1 mm 5 m/S 769 mmHg 88%
    21:00 0°C° 0.1 mm 4 m/S 769 mmHg 89%
    22:00 0°C° 0.1 mm 4 m/S 769 mmHg 89%
    23:00 -1°C° 0.1 mm 4 m/S 769 mmHg 90%

    übermorgen, 13 Dezember, Donnerstag

    Zeit Temperatur Niederschläge Wind Luftdruck Luftfeuchtigkeit
    00:00 -1°C° 0.1 mm 4 m/S 769 mmHg 90%
    01:00 -1°C° 0.1 mm 4 m/S 769 mmHg 90%
    02:00 0°C° 0.1 mm 3 m/S 769 mmHg 90%
    03:00 0°C° 0.1 mm 3 m/S 769 mmHg 90%
    04:00 0°C° 0.1 mm 3 m/S 769 mmHg 90%
    05:00 0°C° 0.1 mm 3 m/S 769 mmHg 90%
    06:00 0°C° 0.1 mm 3 m/S 769 mmHg 91%
    07:00 0°C° 0.1 mm 3 m/S 769 mmHg 91%
    08:00 0°C° 0.1 mm 3 m/S 769 mmHg 89%
    09:00 0°C° 0.1 mm 3 m/S 769 mmHg 87%
    10:00 +1°C° 0.1 mm 3 m/S 769 mmHg 85%
    11:00 +1°C° 0.1 mm 3 m/S 769 mmHg 83%
    12:00 +1°C° 0.1 mm 3 m/S 769 mmHg 81%
    13:00 +2°C° 0.1 mm 3 m/S 768 mmHg 79%
    14:00 +1°C° 0.1 mm 3 m/S 768 mmHg 81%
    15:00 +1°C° 0.1 mm 3 m/S 768 mmHg 84%
    16:00 0°C° 0.1 mm 3 m/S 768 mmHg 86%
    17:00 0°C° 0.1 mm 3 m/S 768 mmHg 87%
    18:00 0°C° 0.1 mm 3 m/S 768 mmHg 87%
    19:00 0°C° 0.1 mm 3 m/S 769 mmHg 87%
    20:00 0°C° 0.1 mm 3 m/S 769 mmHg 87%
    21:00 0°C° 0.1 mm 3 m/S 769 mmHg 88%
    22:00 0°C° 0.1 mm 3 m/S 769 mmHg 88%
    23:00 -1°C° 0 mm 3 m/S 769 mmHg 88%

    14 Dezember, Freitag

    Zeit Temperatur Niederschläge Wind Luftdruck Luftfeuchtigkeit
    00:00 -1°C° 0 mm 2 m/S 769 mmHg 88%
    01:00 -1°C° 0 mm 2 m/S 769 mmHg 88%
    02:00 -1°C° 0 mm 2 m/S 769 mmHg 88%
    03:00 -1°C° 0 mm 2 m/S 769 mmHg 88%
    04:00 -2°C° 0 mm 2 m/S 769 mmHg 88%
    05:00 -2°C° 0 mm 2 m/S 769 mmHg 88%
    06:00 -2°C° 0 mm 2 m/S 769 mmHg 87%
    07:00 -2°C° 0 mm 2 m/S 769 mmHg 86%
    08:00 -2°C° 0 mm 2 m/S 770 mmHg 82%
    09:00 -1°C° 0 mm 3 m/S 770 mmHg 79%
    10:00 -1°C° 0 mm 3 m/S 770 mmHg 76%
    11:00 -1°C° 0 mm 3 m/S 770 mmHg 73%
    12:00 0°C° 0 mm 3 m/S 770 mmHg 71%
    13:00 0°C° 0 mm 3 m/S 771 mmHg 68%
    14:00 -1°C° 0 mm 3 m/S 771 mmHg 71%
    15:00 -1°C° 0 mm 3 m/S 771 mmHg 73%
    16:00 -2°C° 0 mm 3 m/S 771 mmHg 76%
    17:00 -2°C° 0 mm 3 m/S 771 mmHg 77%
    18:00 -2°C° 0 mm 3 m/S 771 mmHg 78%
    19:00 -3°C° 0 mm 4 m/S 772 mmHg 78%
    20:00 -2°C° 0 mm 3 m/S 772 mmHg 80%
    21:00 -2°C° 0 mm 3 m/S 772 mmHg 81%
    22:00 -2°C° 0 mm 3 m/S 772 mmHg 82%
    23:00 -2°C° 0 mm 3 m/S 772 mmHg 83%

    15 Dezember, Samstag

    Zeit Temperatur Niederschläge Wind Luftdruck Luftfeuchtigkeit
    00:00 -4°C° 0 mm 3 m/S 772 mmHg 84%
    01:00 -4°C° 0 mm 3 m/S 772 mmHg 84%
    02:00 -4°C° 0 mm 3 m/S 772 mmHg 85%
    03:00 -3°C° 0 mm 2 m/S 773 mmHg 85%
    04:00 -3°C° 0 mm 2 m/S 773 mmHg 86%
    05:00 -3°C° 0 mm 2 m/S 773 mmHg 86%
    06:00 -3°C° 0 mm 2 m/S 773 mmHg 86%
    07:00 -3°C° 0 mm 2 m/S 773 mmHg 86%
    08:00 -2°C° 0 mm 2 m/S 773 mmHg 84%
    09:00 -2°C° 0 mm 2 m/S 774 mmHg 83%
    10:00 +1°C° 0 mm 1 m/S 774 mmHg 81%
    11:00 +1°C° 0 mm 1 m/S 774 mmHg 79%
    12:00 +1°C° 0 mm 1 m/S 774 mmHg 78%
    13:00 +2°C° 0 mm 1 m/S 774 mmHg 77%
    14:00 +1°C° 0 mm 1 m/S 774 mmHg 80%
    15:00 +1°C° 0 mm 1 m/S 774 mmHg 83%
    16:00 0°C° 0 mm 1 m/S 774 mmHg 86%
    17:00 -2°C° 0 mm 2 m/S 774 mmHg 87%
    18:00 -2°C° 0 mm 2 m/S 775 mmHg 88%
    19:00 -2°C° 0 mm 2 m/S 775 mmHg 89%
    20:00 -2°C° 0 mm 3 m/S 775 mmHg 89%
    21:00 -2°C° 0 mm 3 m/S 775 mmHg 89%
    22:00 -4°C° 0 mm 3 m/S 774 mmHg 88%
    23:00 -4°C° 0 mm 3 m/S 774 mmHg 88%

    16 Dezember, Sonntag

    Zeit Temperatur Niederschläge Wind Luftdruck Luftfeuchtigkeit
    00:00 -4°C° 0 mm 3 m/S 774 mmHg 87%
    01:00 -4°C° 0 mm 3 m/S 774 mmHg 86%
    02:00 -4°C° 0 mm 3 m/S 774 mmHg 87%
    03:00 -4°C° 0 mm 3 m/S 774 mmHg 87%
    04:00 -4°C° 0 mm 3 m/S 774 mmHg 87%
    05:00 -4°C° 0 mm 4 m/S 774 mmHg 88%
    06:00 -4°C° 0 mm 4 m/S 773 mmHg 88%
    07:00 -4°C° 0 mm 4 m/S 773 mmHg 89%
    08:00 -5°C° 0 mm 5 m/S 773 mmHg 86%
    09:00 -5°C° 0 mm 5 m/S 773 mmHg 84%
    10:00 -4°C° 0 mm 6 m/S 773 mmHg 82%
    11:00 -4°C° 0 mm 6 m/S 772 mmHg 80%
    12:00 -3°C° 0 mm 6 m/S 772 mmHg 78%
    13:00 -3°C° 0 mm 6 m/S 772 mmHg 76%
    14:00 -3°C° 0 mm 6 m/S 771 mmHg 78%
    15:00 -4°C° 0 mm 6 m/S 771 mmHg 79%
    16:00 -4°C° 0 mm 6 m/S 770 mmHg 81%
    17:00 -4°C° 0 mm 7 m/S 770 mmHg 80%
    18:00 -4°C° 0 mm 7 m/S 770 mmHg 79%
    19:00 -5°C° 0 mm 8 m/S 769 mmHg 78%
    20:00 -5°C° 0 mm 8 m/S 769 mmHg 76%
    21:00 -4°C° 0 mm 8 m/S 769 mmHg 74%
    22:00 -4°C° 0 mm 9 m/S 768 mmHg 72%
    23:00 -4°C° 0 mm 8 m/S 768 mmHg 72%
    Mehr zeigen